• MPC Preparation (Info)

  • MPEC 2019-C140: 2019 CC5

    The following Minor Planet Electronic Circular may be linked-to from your own Web pages, but must not otherwise be redistributed electronically.

    A form allowing access to any MPEC is at the bottom of this page.


    Read MPEC 2019-C139 Read MPEC 2019-C141


    M.P.E.C. 2019-C140                               Issued 2019 Feb. 13, 05:31 UT
    
         The Minor Planet Electronic Circulars contain information on unusual
             minor planets and routine data on comets.  They are published
        on behalf of Division F of the International Astronomical Union by the
              Minor Planet Center, Smithsonian Astrophysical Observatory,
                              Cambridge, MA 02138, U.S.A.
    
                 Prepared using the Tamkin Foundation Computer Network
    
                                  MPC@CFA.HARVARD.EDU
                URL https://www.minorplanetcenter.net/    ISSN 1523-6714
    
                                       2019 CC5
    
    Observations:
         K19C05C  C2019 02 08.65028413 55 17.055+04 30 17.38         19.4 GVEC140F52
         K19C05C  C2019 02 08.65973313 55 11.459+04 31 11.28         19.5 GVEC140F52
         K19C05C* C2019 02 09.45518 13 47 53.45 +05 44 31.4          19.4 GVEC140703
         K19C05C  C2019 02 09.46046 13 47 50.51 +05 44 59.2          19.8 GVEC140703
         K19C05C  C2019 02 09.47103 13 47 44.46 +05 45 57.7          19.4 GVEC140703
         K19C05C  C2019 02 09.50228 13 47 26.89 +05 48 44.9          19.5 GVEC140I52
         K19C05C  C2019 02 09.50443 13 47 25.69 +05 48 56.6          19.6 GVEC140I52
         K19C05C  C2019 02 09.50628 13 47 24.66 +05 49 06.3          19.5 GVEC140I52
         K19C05C  C2019 02 09.50658 13 47 24.48 +05 49 08.1          19.4 GVEC140I52
         K19C05C  C2019 02 11.43349 13 31 03.81 +08 29 16.3          19.3 GVEC140G96
         K19C05C  C2019 02 11.43863 13 31 01.23 +08 29 40.2          19.6 GVEC140G96
         K19C05C  C2019 02 11.44380 13 30 58.62 +08 30 03.7          19.6 GVEC140G96
         K19C05C  C2019 02 11.44894 13 30 56.04 +08 30 27.4          19.2 GVEC140G96
         K19C05C KC2019 02 11.96268 13 26 53.80 +09 08 53.5          18.8 RoEC140K88
         K19C05C KC2019 02 11.96785 13 26 51.40 +09 09 16.7          18.9 RoEC140K88
         K19C05C KC2019 02 12.16411 13 25 17.57 +09 23 43.1                VEC140204
         K19C05C HC2019 02 12.17220 13 25 13.66 +09 24 18.4                VEC140204
         K19C05C KC2019 02 12.18029 13 25 09.79 +09 24 53.4          19.6 GVEC140204
         K19C05C  C2019 02 12.37353 13 23 43.71 +09 38 58.9          19.1 GVEC140I52
         K19C05C  C2019 02 12.37395 13 23 43.54 +09 39 00.2          19.4 GVEC140I52
         K19C05C  C2019 02 12.37436 13 23 43.32 +09 39 02.3          19.7 GVEC140I52
         K19C05C  C2019 02 12.37478 13 23 43.11 +09 39 03.8          19.3 GVEC140I52
         K19C05C KC2019 02 13.07289713 18 29.26 +10 27 21.3          19.6 GVEC140L01
         K19C05C KC2019 02 13.07419313 18 28.67 +10 27 26.8          19.6 GVEC140L01
         K19C05C KC2019 02 13.07548813 18 28.07 +10 27 32.0          19.4 GVEC140L01
         K19C05C KC2019 02 13.07720413 18 27.29 +10 27 38.9          19.6 GVEC140L01
    
    Observer details:
    204 Schiaparelli Observatory.  Observer L. Buzzi.  0.84-m f/3.5 reflector +
        CCD.
    703 Catalina Sky Survey.  Observer H. Groeller.  Measurers B. M. Africano,
        E. J. Christensen, G. A. Farneth, D. C. Fuls, A. R. Gibbs, A. D. Grauer,
        H. Groeller, R. A. Kowalski, S. M. Larson, G. J. Leonard, T. A. Pruyne,
        R. L. Seaman, F. C. Shelly.  0.68-m Schmidt + 10K CCD.
    F52 Pan-STARRS 2, Haleakala.  Observers J. Bulger, K. Chambers, T. Dukes,
        T. Lowe, E. Magnier, A. Schultz, M. Willman.  Measurers S. Chastel,
        M. Huber, Y. Ramanjooloo, R. Wainscoat, R. Weryk.  1.8-m Ritchey-Chretien
        + CCD.
    G96 Mt. Lemmon Survey.  Observers R. A. Kowalski, T. A. Pruyne.  Measurers
        B. M. Africano, E. J. Christensen, G. A. Farneth, D. C. Fuls, A. R. Gibbs,
        A. D. Grauer, H. Groeller, R. A. Kowalski, S. M. Larson, G. J. Leonard,
        T. A. Pruyne, R. L. Seaman, F. C. Shelly.  1.5-m reflector + 10K CCD.
    I52 Steward Observatory, Mt. Lemmon Station.  Observers D. C. Fuls,
        E. J. Christensen.  Measurers B. M. Africano, E. J. Christensen,
        G. A. Farneth, D. C. Fuls, A. R. Gibbs, A. D. Grauer, H. Groeller,
        R. A. Kowalski, S. M. Larson, G. J. Leonard, T. A. Pruyne, R. L. Seaman,
        F. C. Shelly.  1.0-m reflector + CCD.
    K88 GINOP-KHK, Piszkesteto.  Observer K. Sarneczky.  0.60-m Schmidt + CCD.
    L01 Visnjan Observatory, Tican.  Observers K. Korlevic, F. Valentine.
        Measurer K. Korlevic.  1.0-m f/2.9 reflector + CCD.
    
    Orbital elements:
    2019 CC5                                            PHA, Earth MOID = 0.0171 AU
    Epoch 2019 Apr. 27.0 TT = JDT 2458600.5                 MPC
    M  50.75344              (2000.0)            P               Q
    n   0.39566808     Peri.  295.51197     +0.38814399     -0.91640969
    a   1.8375904      Node   131.29087     +0.88533354     +0.34133692
    e   0.6045947      Incl.    7.46822     +0.25598588     +0.20900330
    P   2.49           H   21.9           G   0.15           U   7
    Residuals in seconds of arc
    190208 F52  0.1-  0.0     190211 G96  0.1-  0.2+    190212 I52  0.1-  0.3+
    190208 F52  0.0   0.0     190211 G96  0.0   0.3+    190212 I52  0.3+  0.2-
    190209 703  0.3+  0.2-    190211 G96  0.1-  0.2-    190212 I52  0.1-  0.1+
    190209 703  0.8+  0.9-    190211 G96  0.0   0.2-    190212 I52  0.2-  0.2-
    190209 703  0.6-  0.7+    190211 K88  0.7-  0.2-    190213 L01  0.1+  0.1-
    190209 I52  0.2-  0.1-    190211 K88  0.3+  0.0     190213 L01  0.1+  0.1+
    190209 I52  0.1-  0.1+    190212 204  0.2+  0.2+    190213 L01  0.0   0.1+
    190209 I52  0.1+  0.2-    190212 204  0.2-  0.3+    190213 L01  0.0   0.0
    190209 I52  0.1-  0.0     190212 204  0.1-  0.1+
    
    Ephemeris:
    2019 CC5                 a,e,i = 1.84, 0.60, 7                   q = 0.7266
    Date    TT    R. A. (2000) Decl.     Delta      r     Elong.  Phase     V
    2019 01 14    19 40 08.0 -33 09 06   0.1634  0.8242    11.7   166.0    31.3
    ...
    2019 01 29    16 11 08.9 -17 36 43   0.1020  0.9454    64.5   110.0    21.0
    ...
    2019 02 06    14 22 21.0 -00 06 27   0.1166  1.0185   102.9    70.6    19.8
    ...
    2019 02 12    13 26 34.6 +09 12 16   0.1442  1.0752   124.5    49.2    19.7
    2019 02 13    13 19 00.9 +10 22 56   0.1497  1.0848   127.5    46.2    19.7
    2019 02 14    13 11 51.8 +11 28 04   0.1555  1.0944   130.3    43.5    19.7
    ...
    2019 02 20    12 36 08.3 +16 22 58   0.1939  1.1520   144.5    29.9    19.9
    ...
    2019 02 28    12 02 22.6 +19 59 49   0.2544  1.2290   157.2    18.2    20.3
    ...
    2019 03 15    11 25 14.3 +22 07 44   0.3939  1.3712   160.1    14.3    21.4
    
    A. U. Tomatic                (C) Copyright 2019 MPC           M.P.E.C. 2019-C140
    

    Read MPEC 2019-C139 Read MPEC 2019-C141


    MPEC number:

    Enter an MPEC number in one of the following forms:

    • 1997-B01 (the full form)
    • J97B01 (the packed version of the full form)
    • B01 (the abbreviated form)